Regional Weather Roundup
Issued by NWS Lake Charles, LA

Home | Current Version | Previous Version | Text Only | Print | Product List | Glossary On
Versions: 1 2 3 4 5 6 7 8 9 10 11 12 13 14 15 16 17 18 19 20 21 22 23 24 25 26 27 28 29 30 31 32 33 34 35 36 37 38 39 40 41 42 43 44 45 46 47 48 49 50
000
ASUS44 KLCH 230210
RWRLCH
RWRLCH
REGIONAL WEATHER ROUNDUP
NATIONAL WEATHER SERVICE LAKE CHARLES LA
900 PM CDT TUE JUL 22 2014

Note: "fair" indicates few or no clouds below 12,000 feet with no
significant weather and/or obstructions to visibility.


ACROSS SOUTHEAST TEXAS

CITY           SKY/WX    TMP DP  RH WIND       PRES   REMARKS
BEAUMONT       MOCLDY    81  76  84 CALM      30.00R
BEAUMONT CITY    N/A     84  73  70 NE3       30.02R
ORANGE           N/A     79  74  84 CALM      30.02R
JASPER           N/A     76  71  85 CALM      30.04R
$$

ACROSS CENTRAL LOUISIANA

CITY           SKY/WX    TMP DP  RH WIND       PRES   REMARKS
LEESVILLE        N/A     81  71  71 N5        30.03R
FULLERTON        N/A     80  75  84 CALM      30.01R
ALEXANDRIA INT   N/A     81  70  69 E8        30.01R
ESLER FIELD      N/A     79  75  87 CALM      30.03R
DERIDDER         N/A     81  73  76 CALM      30.04R
OAKDALE        MOCLDY    80  76  88 CALM      30.01S
OPELOUSAS      MOCLDY    80  72  76 NE5       30.02R
$$

ACROSS SOUTHWEST AND SOUTH CENTRAL LOUISIANA

CITY           SKY/WX    TMP DP  RH WIND       PRES   REMARKS
SULPHUR          N/A     79  73  83 CALM      30.01S
LAKE CHARLES     N/A     78  75  90 CALM      30.00R
CHENNAULT INT  CLEAR     82  73  74 CALM      30.02R
CAMERON PHI    CLEAR     82  77  83 N3        30.01S
DEQUINCY         N/A     78  74  86 CALM      30.01R
JENNINGS         N/A     83  73  71 N3        30.00S
LAFAYETTE      MOCLDY    83  74  74 NE6       30.01R
NEW IBERIA       N/A     84  73  69 NE9       30.01R
ABBEVILLE        N/A     80  72  77 CALM      30.00S
PATTERSON        N/A     79  75  89 CALM      30.04R
SALT POINT       N/A     84  77  79 CALM      29.99R
$$

SELECTED SITES ACROSS THE REGION

CITY           SKY/WX    TMP DP  RH WIND       PRES   REMARKS
HOUSTON BUSH     N/A     87  76  69 NE12      30.00R
HOUSTON HOBBY  MOCLDY    81  73  76 S5        30.00R THUNDER
GALVESTON        N/A     85  77  77 S8        30.01R
COLLEGE STAT     N/A     87  73  62 NE5       30.00R
CONROE           N/A     82  77  84 CALM      30.01R
HUNTSVILLE       N/A     83  76  79 E3        30.01R
LUFKIN           N/A     82  73  74 CALM      30.02S
SHREVEPORT       N/A     79  70  74 CALM      30.03R
MONROE           N/A     79  72  79 CALM      30.05R
NATCHEZ MS       N/A     79  73  83 CALM      30.05R
BATON ROUGE      N/A     75  71  87 CALM      30.02R
N.O. INTL ARPT MOCLDY    80  74  81 E3        30.01R
SLIDELL          N/A     76  68  76 CALM      30.02R
$$

MARINE REPORTS

STATION/POSITION TIME  TEMP    WIND        PRES    VSBY  WAVE
                       AIR SEA DIR/SP/G                  HT/PER
                 (UTC) (F)     (DEG/KT/KT) (MB)    (MI)  (FT/S)
BUOY 30 S HIGH I NOT AVBL
SEA RIM ST PARK  0100   82     240/  4/  4 1016.2R
PORT ARTHUR      0200      86   CALM  /  1 1016.1R
SABINE PASS N    0200   83 87  280/  3/  5 1016.0F
TEXAS POINT      0200   83 86  270/  5/  5 1016.1S
CALCASIEU PASS   0200   85 88  260/  3/  4 1017.0S
LK CHARLES BEACH 0200   85 82              1016.8R
MARSH ISLAND     0100   85     250/  6/  8   N/A
FRESH WATER LOCK 0200   83 89  330/  3/  4 1015.6S
AMERADA PASS     0200   83 85     CALM     1015.7R
$$



USA.gov is the U.S. government's official web portal to all federal, state and local government web resources and services.